Tracking 17264 objects as of 30-August-2015
HD Live streaming from Space Station

INMARSAT 4-F2

Track INMARSAT 4-F2 now!
INMARSAT 4-F2 is classified as:


NORAD ID: 28899
Int'l Code: 2005-044A
Perigee: 35,780.2 km
Apogee: 35,805.9 km
Inclination: 2.5 °
Period: 1,436.1 minutes
Semi major axis: 42164 km
RCS: 4.4668 m2 (large)
Launch date: November 8, 2005
Source: International Mobile Satellite Organization (INMARSAT) (IM)

Nearly the size of a double-decker bus; more than 600 channels.
Your satellite tracking list
Your tracking list is empty





NASA's NSSDC Master Catalog

Two Line Element Set (TLE):
1 28899U 05044A   15240.06594225  .00000119  00000-0  00000+0 0  9994
2 28899 002.4513 002.4539 0003052 162.8710 219.4773 01.00274284 35932

Source of the keplerian elements: AFSPC

N2YO: 175